Kalamazoo, MI

6:26 PM EDT on April 28, 2017 (GMT -0400)
Kalamazoo-Battle Creek International

Weather History for KAZO - December, 2013

Change the Weather History Date:

Saturday, December 28, 2013

  Actual Average Record
Temperature  
Mean Temperature 38 °F 26 °F  
Max Temperature 45 °F 32 °F 65 °F (1984)
Min Temperature 31 °F 20 °F -7 °F (2000)
Degree Days  
Heating Degree Days 27 39  
Month to date heating degree days 1068 1004  
Since 1 July heating degree days 2425 2331  
Cooling Degree Days 0 0  
Month to date cooling degree days 0 0  
Year to date cooling degree days 725 675  
Moisture  
Dew Point 30 °F    
Average Humidity 70    
Maximum Humidity 82    
Minimum Humidity 58    
Precipitation  
Precipitation 0.00 in 0.05 in 0.90 in (1987)
Month to date precipitation 1.46 1.81  
Year to date precipitation 39.43 35.57  
Sea Level Pressure  
Sea Level Pressure 30.03 in    
Wind  
Wind Speed 12 mph (SSW)    
Max Wind Speed 18 mph    
Max Gust Speed 26 mph    
Visibility 10 miles    
Events      
T = Trace of Precipitation, MM = Missing Value Source: NWS Daily Summary

Daily Weather History Graph

Daily Weather History Graph

Search for Another Location

Airport or City:

Trip Planner

Search our weather history database for the weather conditions in past years. The results will help you decide how hot, cold, wet, or windy it might be!

Date:

Astronomy

Dec. 28, 2013 Rise Set
Actual Time 8:10 AM EST 5:17 PM EST
Civil Twilight 7:38 AM EST 5:49 PM EST
Nautical Twilight 7:03 AM EST 6:24 PM EST
Astronomical Twilight 6:29 AM EST 6:58 PM EST
Moon 3:44 AM EST 2:10 PM EST
Length of Visible Light 10h 10m
Length of Day
9h 07m
Waning Crescent, 19% of the Moon is Illuminated
Dec 28
Waning Crescent
Jan 1
New
Jan 7
First Quarter
Jan 15
Full
Jan 24
Last Quarter

Hourly Weather History & Observations

Time (EST) Temp. Windchill Dew Point Humidity Pressure Visibility Wind Dir Wind Speed Gust Speed Precip Events Conditions
12:53 AM 39.9 °F 31.8 °F 28.9 °F 65% 30.08 in 10.0 mi SW 15.0 mph 19.6 mph N/A   Clear
1:53 AM 39.0 °F 31.0 °F 28.9 °F 67% 30.08 in 10.0 mi SW 13.8 mph - N/A   Clear
2:53 AM 39.0 °F 32.3 °F 28.0 °F 65% 30.08 in 10.0 mi WSW 10.4 mph - N/A   Clear
3:53 AM 37.0 °F 31.0 °F 28.0 °F 70% 30.08 in 10.0 mi SW 8.1 mph - N/A   Clear
4:53 AM 37.0 °F 30.4 °F 28.0 °F 70% 30.09 in 10.0 mi WSW 9.2 mph - N/A   Clear
5:53 AM 36.0 °F 29.0 °F 28.0 °F 73% 30.09 in 10.0 mi SW 9.2 mph - N/A   Clear
6:53 AM 34.0 °F 27.2 °F 27.0 °F 75% 30.11 in 10.0 mi SW 8.1 mph - N/A   Clear
7:53 AM 33.1 °F 26.9 °F 27.0 °F 78% 30.12 in 10.0 mi SSW 6.9 mph - N/A   Clear
8:53 AM 34.0 °F 26.0 °F 28.0 °F 79% 30.12 in 10.0 mi SSW 10.4 mph - N/A   Clear
9:53 AM 36.0 °F 29.0 °F 28.9 °F 76% 30.11 in 10.0 mi SW 9.2 mph - N/A   Clear
10:53 AM 39.0 °F 31.0 °F 30.0 °F 70% 30.10 in 10.0 mi SW 13.8 mph - N/A   Clear
11:53 AM 41.0 °F 35.2 °F 30.0 °F 65% 30.08 in 10.0 mi SSW 9.2 mph - N/A   Clear
12:53 PM 41.0 °F 34.7 °F 30.9 °F 67% 30.04 in 10.0 mi South 10.4 mph - N/A   Clear
1:53 PM 42.1 °F 34.2 °F 30.9 °F 65% 30.01 in 10.0 mi South 16.1 mph - N/A   Clear
2:53 PM 44.1 °F 36.8 °F 30.9 °F 60% 30.00 in 10.0 mi SSW 16.1 mph - N/A   Clear
3:53 PM 44.1 °F 37.7 °F 32.0 °F 63% 29.99 in 10.0 mi South 12.7 mph - N/A   Clear
4:53 PM 44.1 °F 37.4 °F 32.0 °F 63% 29.99 in 10.0 mi South 13.8 mph - N/A   Clear
5:53 PM 43.0 °F 35.7 °F 30.9 °F 62% 29.97 in 10.0 mi SSW 15.0 mph - N/A   Clear
6:53 PM 42.1 °F 34.5 °F 32.0 °F 67% 29.98 in 10.0 mi SSW 15.0 mph - N/A   Clear
7:53 PM 41.0 °F 33.9 °F 32.0 °F 70% 29.96 in 10.0 mi South 12.7 mph - N/A   Clear
8:53 PM 41.0 °F 33.5 °F 32.0 °F 70% 29.94 in 10.0 mi SSW 13.8 mph - N/A   Clear
9:53 PM 41.0 °F 33.9 °F 30.0 °F 65% 29.93 in 10.0 mi SSW 12.7 mph 23.0 mph N/A   Clear
10:53 PM 39.0 °F 32.8 °F 30.0 °F 70% 29.91 in 10.0 mi SSW 9.2 mph - N/A   Clear
11:53 PM 37.9 °F 32.7 °F 28.9 °F 70% 29.90 in 10.0 mi South 6.9 mph - N/A   Clear